Weather in Ivantsevo

Russia / Ivanovo Oblast     57°06′13″N   40°53′56″E
temp.,
°C
wind,
m/s
gust,
m/s
humid.,
%
clouds,
%
prec.,
mm/h
press.,
hPa
HPBL,
m
3 march, wed
wed300:00−5nw5138735 0.1 1007506
03:00−7nw5139143 0.1 1009471
06:00−8nw5139298 0.0 1010448
09:00−7nw6128999 0.1 1011648
12:00−3wnw5108760 0.0 1010820
15:00−1w5109280 0.2 1009891
18:00−2w51293100 0.3 1007789
21:00−2w51292100 0.3 1006742
4 march, thu
thu400:00−2wsw51294100 0.1 1003707
03:00−2wsw61395100 0.6 1000774
06:00−1w41097100 0.9 997603
09:00−2wnw61182100 1.2 9971089
12:00−3wnw6108427 0.0 998869
15:00−3wnw578564 0.1 999804
18:00−5nw3887100 0.1 999359
21:00−9nnw359485 0.1 100197
5 march, fri
fri500:00−10n239693 0.0 100231
03:00−12n239561 0.0 100333
06:00−13nnw23940 0.0 100556
09:00−11nnw24920 0.0 1006172
12:00−7nnw22760 0.0 1007425
15:00−5w227233 0.0 1008757
18:00−9wsw238880 0.0 100923
21:00−11wsw239540 0.0 101030
6 march, sat
sat600:00−12w339649 0.0 101259
03:00−13nw359463 0.0 1013118
06:00−17nw369614 0.0 1014128
09:00−15nw359315 0.0 1015204
12:00−10wnw357821 0.0 1015556
15:00−8w478043 0.0 1014839
18:00−11wsw358893 0.0 101391
21:00−13sw369258 0.0 1012110
7 march, sun
sun700:00−13ssw489451 0.0 1010169
03:00−11ssw5129071 0.0 1006362
06:00−10ssw71492100 0.1 1002774
09:00−7ssw81592100 0.7 997955
12:00−5ssw81492100 0.8 9921085
15:00−3ssw81594100 2.6 9881102
18:00−6w51288100 2.4 987981
21:00−11sw4108367 2.4 989259